Regional Weather Roundup
Issued by NWS

Home | Current Version | Previous Version | Graphics & Text | Print | Product List | Glossary On
Versions: 1 2 3 4 5 6 7 8 9 10 11 12 13 14 15 16 17 18 19 20 21 22 23 24 25 26 27 28 29 30 31 32 33 34 35 36 37 38 39 40 41 42 43 44 45 46 47 48 49
350
ASUS45 KSLC 111910
RWRUT

UTAH REGIONAL WEATHER ROUNDUP
NATIONAL WEATHER SERVICE SALT LAKE CITY UT
1200 PM MST THU FEB 11 2016

UTZ001>011-023>025-112000-

NORTHERN UTAH

CITY           SKY/WX    TMP DP  RH WIND       PRES   REMARKS
BRIGHAM CITY   CLOUDY    27  25  93 CALM      30.50S
HILL AFB       NOT AVBL
LOGAN          CLOUDY    24  22  91 CALM      30.47F FOG
OGDEN          CLOUDY    28  26  92 NW5       30.46F FOG     WCI  23
PROVO AIRPORT  FOG       23  19  86 CALM      30.47F VSB 1/8
SALT LAKE CITY FOG       30  27  88 N9        30.48R VSB 1   WCI  22
VERNAL         CLOUDY    27  18  69 CALM      30.44F HAZE
WENDOVER       CLOUDY    30  27  86 S3        30.47S
HEBER CITY     MOSUNNY   28  18  64 CALM      30.42F
WEST JORDAN    PTSUNNY   28  27  93 CALM      30.47S

$$

UTZ012>022-026-027-112000-

SOUTHERN/CENTRAL UTAH

CITY           SKY/WX    TMP DP  RH WIND       PRES   REMARKS
BLANDING       SUNNY     38  29  68 CALM      30.49F
BRYCE CANYON   SUNNY     38  20  48 CALM      30.45F
CEDAR CITY     MOSUNNY   36  24  62 CALM      30.40F
DELTA          CLOUDY    17  16  95 CALM      30.47F
HANKSVILLE     SUNNY     39  30  70 CALM      30.47F
MILFORD        CLOUDY    16  15  96 CALM      30.44F FOG
MOAB/CYNLANDS  MOSUNNY   37  29  72 NW7       30.43F WCI  32
PRICE          MOSUNNY   38  25  59 CALM      30.42F
ST GEORGE      PTCLDY    54  27  35 CALM      30.37F
KANAB          SUNNY     63  21  20 E6        30.39F

$$

REGIONAL REPORTS     COLORADO/ARIZONA

CITY           SKY/WX    TMP DP  RH WIND       PRES   REMARKS
CRAIG, CO      CLOUDY    23  15  71 SW6       30.40F WCI  16
GRAND JUNCTION SUNNY     37  23  56 CALM      30.44S
RIFLE          CLOUDY    32  17  54 CALM      30.43F
MONTROSE       SUNNY     40  20  44 CALM      30.43F
CORTEZ         SUNNY     44  16  32 S3        30.40F
PAGE, AZ       SUNNY     46  32  58 N3        30.41F
GRAND CANYON   SUNNY     63   7  11 NE3       30.41S
KINGMAN        SUNNY     64  26  23 N9        30.28F
FLAGSTAFF      SUNNY     55  12  18 CALM      30.41F

$$

REGIONAL REPORTS    NEVADA/IDAHO/WYOMING

CITY           SKY/WX    TMP DP  RH WIND       PRES   REMARKS
LAS VEGAS, NV  MOSUNNY   66  23  19 VRB3      30.24F
ELY            MOSUNNY   34  19  54 S12       30.40F WCI  25
ELKO           MOSUNNY   29  18  63 CALM      30.43F
POCATELLO, ID  CLOUDY    32  23  69 NE7       30.45R WCI  26
BURLEY         MOSUNNY   44  31  60 NE12      30.37F
EVANSTON, WY   CLOUDY    37  16  42 SW6       30.41S WCI  32
ROCK SPRINGS   CLOUDY   N/A N/A N/A MISG      30.36F
KEMMERER       CLOUDY    37  21  52 W8        30.40S WCI  31

$$




USA.gov is the U.S. government's official web portal to all federal, state and local government web resources and services.